When you browse on this site, cookies collect data to enhance your experience and personalize the content and advertising you see.
Visit our Privacy Policy to learn more. By continuing to use the site, you agree to this use of cookies and data.
  • In France
  • List of Countries
  • For 7 days
  • Water Temperature
  • Satellite Maps
  • Weather Map
  • Weather Widgets
  • user-avatar
    Login

    Hourly Weather Nizhnecherekulevo

    Today, 22 November, Thursday

    Time Temperature Precipitation Wind Pressure Humidity
    00:00 -10°C° 0 mm 5 mps 742 mmHg 86%
    01:00 -10°C° 0 mm 5 mps 742 mmHg 87%
    02:00 -11°C° 0 mm 5 mps 743 mmHg 88%
    03:00 -11°C° 0 mm 5 mps 743 mmHg 88%
    04:00 -11°C° 0 mm 5 mps 743 mmHg 90%
    05:00 -11°C° 0 mm 5 mps 743 mmHg 91%
    06:00 -11°C° 0 mm 5 mps 743 mmHg 91%
    07:00 -11°C° 0 mm 5 mps 743 mmHg 91%
    08:00 -11°C° 0 mm 5 mps 743 mmHg 90%
    09:00 -11°C° 0 mm 5 mps 743 mmHg 90%
    10:00 -11°C° 0 mm 5 mps 743 mmHg 90%
    11:00 -10°C° 0 mm 4 mps 742 mmHg 90%
    12:00 -10°C° 0 mm 4 mps 742 mmHg 89%
    13:00 -9°C° 0 mm 4 mps 742 mmHg 88%
    14:00 -10°C° 0.2 mm 5 mps 741 mmHg 89%
    15:00 -9°C° 0.2 mm 6 mps 740 mmHg 90%
    16:00 -9°C° 0.2 mm 6 mps 740 mmHg 90%
    17:00 -9°C° 0.5 mm 7 mps 739 mmHg 89%
    18:00 -9°C° 0.5 mm 7 mps 738 mmHg 89%
    19:00 -10°C° 0.5 mm 8 mps 738 mmHg 88%
    20:00 -10°C° 0.3 mm 8 mps 737 mmHg 88%
    21:00 -10°C° 0.3 mm 8 mps 736 mmHg 88%
    22:00 -10°C° 0.3 mm 8 mps 736 mmHg 89%
    23:00 -9°C° 0.4 mm 7 mps 735 mmHg 89%

    Tomorrow, 23 November, Friday

    Time Temperature Precipitation Wind Pressure Humidity
    00:00 -9°C° 0.4 mm 7 mps 735 mmHg 90%
    01:00 -8°C° 0.4 mm 6 mps 735 mmHg 91%
    02:00 -8°C° 0.3 mm 5 mps 735 mmHg 91%
    03:00 -10°C° 0.3 mm 5 mps 735 mmHg 91%
    04:00 -9°C° 0.3 mm 4 mps 735 mmHg 91%
    05:00 -11°C° 0 mm 4 mps 736 mmHg 92%
    06:00 -12°C° 0 mm 4 mps 736 mmHg 92%
    07:00 -15°C° 0 mm 4 mps 736 mmHg 92%
    08:00 -14°C° 0 mm 4 mps 737 mmHg 91%
    09:00 -14°C° 0 mm 5 mps 738 mmHg 91%
    10:00 -14°C° 0 mm 5 mps 739 mmHg 90%
    11:00 -14°C° 0 mm 5 mps 740 mmHg 87%
    12:00 -14°C° 0 mm 6 mps 741 mmHg 84%
    13:00 -14°C° 0 mm 6 mps 741 mmHg 80%
    14:00 -14°C° 0 mm 6 mps 742 mmHg 80%
    15:00 -14°C° 0 mm 5 mps 743 mmHg 79%
    16:00 -15°C° 0 mm 5 mps 744 mmHg 78%
    17:00 -15°C° 0 mm 5 mps 745 mmHg 80%
    18:00 -17°C° 0 mm 5 mps 745 mmHg 81%
    19:00 -17°C° 0 mm 5 mps 746 mmHg 83%
    20:00 -17°C° 0 mm 5 mps 746 mmHg 86%
    21:00 -17°C° 0 mm 4 mps 747 mmHg 88%
    22:00 -17°C° 0 mm 4 mps 747 mmHg 91%
    23:00 -18°C° 0 mm 4 mps 748 mmHg 92%

    Day after tomorrow, 24 November, Saturday

    Time Temperature Precipitation Wind Pressure Humidity
    00:00 -18°C° 0 mm 4 mps 748 mmHg 93%
    01:00 -17°C° 0 mm 3 mps 749 mmHg 95%
    02:00 -17°C° 0 mm 3 mps 749 mmHg 95%
    03:00 -17°C° 0 mm 3 mps 749 mmHg 96%
    04:00 -17°C° 0 mm 3 mps 750 mmHg 96%
    05:00 -17°C° 0 mm 3 mps 750 mmHg 96%
    06:00 -17°C° 0 mm 3 mps 750 mmHg 96%
    07:00 -16°C° 0 mm 3 mps 750 mmHg 96%
    08:00 -17°C° 0 mm 4 mps 750 mmHg 96%
    09:00 -16°C° 0 mm 4 mps 750 mmHg 95%
    10:00 -15°C° 0 mm 4 mps 750 mmHg 95%
    11:00 -13°C° 0 mm 5 mps 750 mmHg 93%
    12:00 -12°C° 0 mm 5 mps 749 mmHg 91%
    13:00 -10°C° 0 mm 6 mps 749 mmHg 89%
    14:00 -11°C° 0.1 mm 7 mps 749 mmHg 88%
    15:00 -11°C° 0.1 mm 7 mps 748 mmHg 88%
    16:00 -11°C° 0.1 mm 8 mps 748 mmHg 87%
    17:00 -10°C° 0.1 mm 8 mps 747 mmHg 87%
    18:00 -10°C° 0.1 mm 8 mps 747 mmHg 86%
    19:00 -10°C° 0.1 mm 9 mps 747 mmHg 85%
    20:00 -8°C° 0.1 mm 8 mps 747 mmHg 86%
    21:00 -8°C° 0.1 mm 8 mps 747 mmHg 86%
    22:00 -8°C° 0.1 mm 8 mps 747 mmHg 87%
    23:00 -8°C° 0 mm 7 mps 747 mmHg 87%

    25 November, Sunday

    Time Temperature Precipitation Wind Pressure Humidity
    00:00 -7°C° 0 mm 7 mps 748 mmHg 88%
    01:00 -7°C° 0 mm 7 mps 748 mmHg 88%
    02:00 -7°C° 0.1 mm 7 mps 748 mmHg 88%
    03:00 -6°C° 0.1 mm 6 mps 748 mmHg 89%
    04:00 -6°C° 0.1 mm 6 mps 748 mmHg 89%
    05:00 -6°C° 0.1 mm 6 mps 748 mmHg 89%
    06:00 -6°C° 0.1 mm 6 mps 747 mmHg 89%
    07:00 -6°C° 0.1 mm 6 mps 747 mmHg 89%
    08:00 -7°C° 0.2 mm 7 mps 747 mmHg 89%
    09:00 -7°C° 0.2 mm 7 mps 747 mmHg 89%
    10:00 -7°C° 0.2 mm 7 mps 747 mmHg 90%
    11:00 -7°C° 0.3 mm 7 mps 747 mmHg 89%
    12:00 -7°C° 0.3 mm 7 mps 746 mmHg 89%
    13:00 -6°C° 0.3 mm 7 mps 746 mmHg 89%
    14:00 -6°C° 0.1 mm 7 mps 747 mmHg 89%
    15:00 -5°C° 0.1 mm 6 mps 747 mmHg 89%
    16:00 -5°C° 0.1 mm 6 mps 747 mmHg 89%
    17:00 -6°C° 0 mm 5 mps 748 mmHg 89%
    18:00 -6°C° 0 mm 5 mps 748 mmHg 90%
    19:00 -6°C° 0 mm 5 mps 749 mmHg 90%
    20:00 -5°C° 0 mm 4 mps 749 mmHg 91%
    21:00 -5°C° 0 mm 4 mps 749 mmHg 92%
    22:00 -7°C° 0 mm 4 mps 749 mmHg 92%
    23:00 -6°C° 0 mm 3 mps 750 mmHg 93%

    26 November, Monday

    Time Temperature Precipitation Wind Pressure Humidity
    00:00 -7°C° 0 mm 3 mps 750 mmHg 94%
    01:00 -7°C° 0 mm 3 mps 750 mmHg 94%
    02:00 -7°C° 0 mm 2 mps 750 mmHg 94%
    03:00 -8°C° 0 mm 2 mps 750 mmHg 94%
    04:00 -9°C° 0 mm 2 mps 750 mmHg 94%
    05:00 -9°C° 0 mm 2 mps 750 mmHg 94%
    06:00 -8°C° 0 mm 1 mps 750 mmHg 93%
    07:00 -8°C° 0 mm 1 mps 750 mmHg 93%
    08:00 -8°C° 0 mm 1 mps 750 mmHg 93%
    09:00 -7°C° 0 mm 1 mps 750 mmHg 93%
    10:00 -6°C° 0 mm 1 mps 750 mmHg 93%
    11:00 -6°C° 0 mm 1 mps 750 mmHg 93%
    12:00 -4°C° 0 mm 1 mps 750 mmHg 93%
    13:00 -4°C° 0 mm 1 mps 750 mmHg 92%
    14:00 -6°C° 0 mm 1 mps 749 mmHg 92%
    15:00 -6°C° 0 mm 1 mps 749 mmHg 92%
    16:00 -7°C° 0 mm 1 mps 749 mmHg 92%
    17:00 -8°C° 0 mm 1 mps 749 mmHg 92%
    18:00 -8°C° 0 mm 1 mps 749 mmHg 92%
    19:00 -9°C° 0 mm 1 mps 749 mmHg 92%
    20:00 -9°C° 0 mm 1 mps 748 mmHg 93%
    21:00 -9°C° 0 mm 1 mps 748 mmHg 93%
    22:00 -10°C° 0 mm 1 mps 748 mmHg 94%
    23:00 -10°C° 0 mm 1 mps 748 mmHg 94%

    27 November, Tuesday

    Time Temperature Precipitation Wind Pressure Humidity
    00:00 -10°C° 0 mm 0 mps 748 mmHg 94%
    01:00 -10°C° 0 mm 0 mps 748 mmHg 94%
    02:00 -10°C° 0 mm 1 mps 747 mmHg 95%
    03:00 -10°C° 0 mm 1 mps 747 mmHg 95%
    04:00 -10°C° 0 mm 1 mps 747 mmHg 95%
    05:00 -10°C° 0 mm 1 mps 747 mmHg 95%
    06:00 -10°C° 0 mm 1 mps 747 mmHg 96%
    07:00 -10°C° 0 mm 1 mps 747 mmHg 96%
    08:00 -10°C° 0 mm 1 mps 747 mmHg 96%
    09:00 -10°C° 0 mm 0 mps 747 mmHg 96%
    10:00 -10°C° 0 mm 0 mps 747 mmHg 96%
    11:00 -9°C° 0 mm 0 mps 748 mmHg 95%
    12:00 -9°C° 0 mm 1 mps 748 mmHg 95%
    13:00 -8°C° 0 mm 1 mps 748 mmHg 95%
    14:00 -9°C° 0 mm 1 mps 749 mmHg 95%
    15:00 -10°C° 0 mm 1 mps 749 mmHg 95%
    16:00 -10°C° 0 mm 1 mps 750 mmHg 96%
    17:00 -11°C° 0 mm 1 mps 751 mmHg 96%
    18:00 -11°C° 0 mm 1 mps 751 mmHg 96%
    19:00 -11°C° 0 mm 1 mps 752 mmHg 96%
    20:00 -11°C° 0 mm 1 mps 752 mmHg 96%
    21:00 -11°C° 0 mm 1 mps 753 mmHg 96%
    22:00 -11°C° 0 mm 1 mps 753 mmHg 96%
    23:00 -11°C° 0 mm 1 mps 754 mmHg 96%
    Show more